Wind_Speed
67 75 81 81 74 63 56 45 36 33 29 22 20 20 22 24 27 29 32 35 39 39 45 43 46 50 53 51 53 54 59 68 73 79 84 88 96 104 112 118 129 142 152
69 78 84 84 79 71 61 46 38 31 26 22 16 14 13 15 18 22 24 27 29 32 34 37 39 41 43 42 44 49 54 63 70 75 75 76 84 96 104 111 117 129 144
70 79 86 87 83 75 64 50 44 35 30 25 20 15 11 9 10 12 16 19 23 27 29 30 32 33 34 36 39 44 50 57 63 66 67 71 76 85 94 102 110 117 129
70 77 86 89 84 78 68 56 50 42 34 29 25 21 18 16 14 14 16 17 18 18 19 19 22 23 23 26 31 38 44 48 54 57 59 63 67 74 85 93 102 109 118
68 75 83 91 87 82 71 61 55 50 42 35 30 26 24 21 21 20 20 17 16 16 15 15 14 15 15 17 22 28 34 39 44 47 50 54 61 68 77 85 91 98 109
65 73 81 88 90 84 76 68 62 56 50 45 40 33 29 26 26 26 23 18 15 12 10 9 9 10 11 12 16 21 26 31 36 40 43 47 52 58 66 73 79 86 95
63 70 77 84 90 88 84 75 66 60 56 51 46 42 37 33 30 30 31 29 21 19 13 11 9 7 6 8 10 14 20 25 29 33 36 41 48 53 61 69 75 79 84
61 68 73 77 84 91 89 84 75 66 62 59 53 49 44 39 34 31 31 31 28 25 22 17 14 10 7 4 5 8 13 18 23 28 31 36 40 48 56 62 68 75 80
60 64 69 72 79 86 91 90 84 78 73 66 61 57 51 44 39 34 31 32 30 30 24 23 19 15 11 6 3 1 6 11 17 22 27 31 35 42 49 55 61 67 73
57 60 64 68 74 81 87 92 92 86 82 76 69 63 58 52 46 38 33 31 32 33 31 29 23 18 15 13 8 4 1 4 8 13 18 23 28 34 40 46 52 58 64
51 55 60 65 69 75 82 88 94 95 90 84 78 72 66 59 52 46 39 34 33 32 32 32 29 23 20 17 13 10 6 2 3 6 9 14 20 25 30 35 41 47 53
46 51 56 61 65 70 76 82 88 93 94 93 86 79 73 67 60 52 47 42 38 35 34 33 32 31 27 23 18 16 14 11 6 4 7 10 13 16 19 24 30 36 42
42 47 51 56 62 67 72 76 81 85 89 93 93 89 82 75 69 62 57 51 47 43 38 34 33 32 31 29 25 20 17 16 13 8 5 5 8 10 12 15 19 23 28
38 43 47 51 56 61 66 70 74 78 81 86 89 92 91 87 79 72 66 60 55 49 44 42 38 34 31 29 29 27 25 21 19 15 9 5 3 4 6 9 12 15 20
36 40 43 47 51 55 59 63 67 71 74 78 82 86 89 90 88 83 77 70 63 57 54 51 47 43 38 35 32 29 27 25 24 21 17 12 9 4 1 4 5 9 12
32 36 40 43 45 48 52 56 59 63 66 70 73 76 79 83 87 90 88 81 77 71 66 60 54 49 46 42 39 35 31 29 26 24 23 19 15 11 8 4 3 5 9
28 32 35 38 40 43 47 51 54 57 60 63 67 70 73 75 80 83 88 90 89 83 75 69 62 56 50 46 44 42 39 36 32 28 25 23 21 19 16 12 9 4 4
26 25 29 33 37 39 42 45 48 52 54 56 59 62 67 69 72 76 81 87 90 90 85 75 68 64 59 55 51 46 44 40 38 34 31 28 25 22 19 17 15 12 7
31 26 23 26 31 35 37 40 43 46 48 51 53 57 61 63 67 73 77 80 81 82 85 86 77 70 66 62 59 55 51 48 43 41 38 34 31 28 24 21 18 15 13
40 30 25 23 24 28 31 33 36 39 43 45 47 49 52 56 62 66 68 70 73 76 79 82 84 79 72 67 62 58 54 53 49 46 44 41 38 33 31 28 24 21 18
65 45 30 26 25 23 25 29 30 33 36 41 43 46 48 50 52 56 59 62 66 68 71 74 78 81 77 70 64 61 57 57 55 53 51 49 47 44 38 35 34 31 27
70 66 51 34 27 24 23 24 27 29 31 33 37 40 41 43 46 49 52 55 58 61 64 67 70 73 77 74 66 62 59 59 60 57 57 57 57 54 50 46 44 39 34
76 69 65 56 41 29 25 23 23 24 27 28 30 33 36 39 40 43 45 47 49 53 56 59 62 66 69 73 69 63 59 61 60 61 63 59 58 60 59 56 51 46 42
73 76 74 66 62 51 34 26 24 24 24 25 26 28 30 33 36 37 39 40 43 45 48 52 55 58 60 63 69 66 60 62 62 63 63 63 61 59 58 57 53 50 46
68 74 73 75 69 60 58 48 31 24 24 25 25 24 26 28 30 32 34 36 37 39 42 44 46 50 53 55 58 63 60 61 60 60 62 62 59 59 56 53 52 52 52
62 65 69 72 74 69 66 60 56 39 28 24 25 27 26 25 26 28 30 32 33 35 37 37 39 41 44 46 49 52 55 54 53 55 57 56 56 56 52 52 50 50 49
Wind_Direction
5 5 5 3 358 357 358 352 342 334 332 324 309 295 285 279 272 271 269 266 263 262 261 260 255 252 252 251 248 243 237 234 234 234 233 229 228 228 227 226 226 225 227
7 8 7 7 5 4 4 360 360 358 352 349 343 330 307 294 284 274 272 271 269 265 263 261 260 258 257 254 248 241 235 233 233 235 234 232 228 226 226 225 225 225 226
9 10 10 11 9 7 8 9 13 13 14 14 12 8 358 339 313 295 282 279 274 272 272 268 265 260 256 251 245 241 238 235 236 236 233 231 230 227 226 226 226 225 225
12 12 13 13 13 13 10 15 19 20 23 27 24 19 19 10 351 332 321 313 306 297 287 279 271 263 255 246 240 235 234 237 237 235 233 230 228 227 226 226 225 225 225
13 14 16 16 16 17 16 17 23 23 25 27 28 26 21 20 16 8 355 343 334 323 314 303 292 280 263 247 239 236 236 234 233 234 234 231 228 226 226 226 226 226 226
14 16 19 19 19 19 21 22 23 26 25 28 28 27 24 24 24 24 24 18 10 358 335 328 318 302 284 260 243 236 235 235 235 233 231 227 228 231 231 230 229 228 227
17 18 21 21 22 23 23 27 28 26 28 29 30 28 27 25 25 26 28 26 28 22 20 19 6 343 311 274 250 238 235 235 236 235 230 226 225 226 229 230 231 230 229
18 19 22 23 24 27 27 28 31 32 32 30 31 31 29 27 30 29 28 32 35 34 30 33 27 16 5 326 267 245 237 234 236 235 232 229 227 227 229 231 231 230 229
21 22 21 23 26 29 30 31 32 33 34 32 33 33 32 29 27 32 33 32 33 37 37 40 38 37 35 30 23 238 232 238 240 238 234 229 228 227 227 229 231 231 231
21 23 24 25 26 30 31 34 35 35 36 35 34 34 34 33 33 31 35 36 35 36 37 45 44 40 42 46 44 30 299 229 232 237 240 239 237 231 229 229 231 231 232
19 23 25 26 28 29 32 33 35 36 37 38 36 36 35 36 35 37 37 38 41 42 42 45 48 45 45 43 46 45 25 350 273 256 251 246 240 237 235 234 232 232 232
19 21 25 27 29 30 31 34 36 36 38 38 39 38 38 37 37 39 42 43 41 40 43 44 46 49 51 50 47 53 44 29 4 313 263 256 254 251 244 238 235 232 232
19 19 24 26 29 31 32 33 35 37 37 39 40 39 40 40 39 39 40 42 44 45 45 45 45 46 47 48 49 48 50 52 41 20 345 293 268 255 244 242 238 234 232
15 18 21 26 28 30 32 34 35 37 36 38 40 41 40 42 42 42 42 41 42 46 48 50 48 47 46 46 48 49 50 51 53 51 46 16 335 284 268 254 235 229 228
13 16 19 22 28 29 32 34 35 35 37 38 39 41 41 41 42 43 43 45 46 46 47 47 46 47 48 49 48 46 47 48 50 54 60 68 69 74 207 238 242 228 222
11 14 17 19 23 30 30 31 35 36 36 37 38 40 41 41 43 43 44 43 44 45 46 46 46 46 46 46 48 49 47 46 45 43 45 49 54 60 64 79 176 207 218
8 12 14 16 19 24 29 31 30 32 34 35 35 37 38 39 42 42 44 44 44 43 43 44 46 47 48 48 48 47 47 47 46 47 49 47 47 49 51 59 69 87 189
5 9 13 13 16 20 24 29 30 30 31 34 36 36 38 38 40 42 43 43 43 42 42 43 43 45 47 50 50 50 50 50 50 50 49 48 49 51 52 53 52 51 59
5 2 6 13 15 17 20 22 26 29 29 30 32 36 37 36 38 40 41 42 42 41 42 41 42 43 45 47 47 47 48 50 52 53 53 51 52 53 54 53 54 57 59
10 3 0 1 11 15 15 18 20 23 26 27 28 31 34 35 36 36 38 40 40 40 39 40 41 42 43 45 48 49 53 55 55 56 57 56 58 57 58 60 60 60 58
22 17 2 360 355 2 9 11 13 18 20 22 23 25 28 30 33 36 37 37 37 38 39 39 39 40 43 44 47 51 54 57 56 56 59 59 59 59 59 62 63 62 63
23 22 22 9 358 355 355 1 5 7 14 18 18 18 21 23 26 30 32 34 35 35 36 36 37 39 40 42 44 48 53 56 59 60 61 62 61 58 56 58 61 62 66
26 24 22 21 16 1 353 350 353 358 1 6 11 13 12 14 19 22 26 29 31 31 32 34 35 35 37 40 43 46 52 57 60 65 66 64 64 65 63 62 60 61 60
25 26 23 22 20 17 7 351 343 343 347 353 358 2 6 6 9 12 16 20 24 26 27 28 30 32 33 37 42 45 52 59 59 63 63 60 59 60 60 60 61 62 63
28 28 28 29 30 22 19 12 354 339 335 337 341 348 353 357 359 2 4 10 15 18 21 23 25 28 31 32 38 44 47 52 59 60 63 58 55 53 57 58 57 56 57
20 29 28 26 24 19 21 19 18 5 340 329 327 330 335 341 346 350 354 357 1 8 13 17 21 25 29 31 34 39 46 49 52 57 60 59 60 56 53 51 56 59 60
Height
10366 10346 10324 10299 10274 10253 10235 10222 10209 10198 10189 10182 10177 10173 10171 10170 10168 10167 10165 10163 10160 10161 10158 10160 10160 10161 10163 10167 10170 10175 10181 10187 10194 10202 10212 10227 10243 10258 10272 10290 10312 10335 10357
10365 10344 10321 10296 10271 10248 10232 10218 10204 10192 10182 10175 10170 10165 10162 10160 10159 10156 10154 10151 10149 10147 10145 10144 10144 10145 10147 10149 10151 10155 10160 10167 10174 10181 10194 10209 10221 10234 10248 10265 10286 10305 10326
10364 10344 10322 10297 10273 10250 10233 10218 10203 10190 10180 10173 10167 10162 10158 10155 10153 10150 10146 10143 10139 10136 10133 10131 10130 10130 10131 10133 10135 10139 10144 10150 10156 10165 10176 10189 10201 10214 10227 10242 10260 10277 10296
10366 10347 10325 10303 10278 10256 10235 10219 10204 10192 10181 10172 10166 10161 10156 10153 10149 10145 10140 10135 10130 10126 10122 10120 10118 10118 10118 10119 10122 10125 10130 10136 10141 10150 10160 10171 10184 10197 10209 10222 10237 10253 10272
10371 10352 10332 10308 10284 10262 10241 10224 10207 10195 10185 10175 10168 10162 10157 10151 10146 10140 10134 10128 10123 10118 10114 10113 10111 10110 10110 10111 10113 10117 10121 10125 10130 10137 10148 10159 10168 10177 10187 10200 10217 10233 10246
10376 10358 10338 10318 10295 10272 10251 10229 10213 10201 10190 10179 10169 10163 10157 10151 10144 10138 10132 10126 10120 10116 10112 10109 10107 10106 10105 10106 10107 10109 10113 10117 10121 10127 10136 10146 10156 10166 10175 10186 10199 10212 10226
10381 10364 10346 10328 10307 10284 10261 10241 10224 10210 10197 10185 10175 10166 10159 10152 10145 10138 10131 10125 10120 10117 10111 10107 10104 10103 10102 10102 10103 10105 10108 10110 10114 10120 10127 10134 10140 10149 10157 10162 10171 10186 10198
10387 10370 10354 10340 10321 10298 10275 10254 10237 10221 10206 10194 10182 10172 10163 10155 10149 10142 10135 10128 10122 10118 10113 10108 10105 10103 10102 10101 10102 10103 10104 10106 10110 10114 10119 10124 10132 10137 10143 10149 10157 10164 10174
10392 10378 10364 10350 10333 10312 10292 10270 10248 10231 10214 10202 10190 10178 10171 10162 10154 10147 10140 10132 10127 10121 10117 10112 10108 10105 10103 10101 10100 10100 10102 10103 10105 10107 10111 10116 10122 10127 10131 10136 10142 10149 10157
10399 10387 10375 10361 10343 10325 10307 10288 10265 10245 10227 10212 10200 10189 10179 10170 10161 10153 10147 10140 10133 10127 10122 10115 10112 10108 10106 10103 10102 10101 10100 10101 10103 10105 10107 10109 10113 10118 10122 10126 10130 10136 10144
10407 10396 10383 10369 10353 10337 10320 10301 10281 10261 10243 10227 10213 10201 10189 10180 10172 10163 10154 10147 10141 10134 10129 10123 10118 10113 10110 10107 10105 10103 10102 10101 10101 10101 10102 10104 10107 10110 10114 10117 10122 10126 10130
10411 10402 10389 10377 10363 10348 10332 10314 10296 10280 10264 10246 10231 10218 10205 10195 10184 10176 10166 10157 10150 10143 10136 10131 10125 10120 10116 10113 10111 10107 10106 10105 10103 10103 10102 10102 10103 10105 10107 10110 10113 10117 10121
10415 10407 10396 10384 10371 10357 10342 10327 10312 10298 10284 10268 10253 10237 10224 10211 10200 10189 10178 10168 10159 10151 10145 10140 10134 10129 10124 10120 10116 10113 10110 10108 10106 10105 10104 10102 10102 10102 10102 10104 10107 10111 10115
10419 10411 10402 10391 10380 10367 10355 10342 10328 10315 10303 10288 10272 10258 10245 10230 10218 10206 10193 10182 10173 10165 10159 10149 10144 10139 10134 10129 10124 10120 10117 10115 10112 10109 10107 10105 10103 10102 10101 10102 10103 10105 10109
10420 10414 10406 10397 10387 10376 10366 10355 10344 10332 10320 10307 10292 10277 10266 10253 10239 10224 10212 10201 10191 10181 10169 10160 10154 10148 10143 10137 10132 10128 10123 10119 10115 10112 10109 10107 10106 10104 10102 10101 10102 10103 10105
10424 10417 10410 10403 10396 10387 10377 10368 10358 10348 10337 10325 10313 10299 10287 10274 10259 10245 10230 10215 10203 10192 10179 10172 10166 10159 10152 10145 10140 10134 10130 10125 10122 10118 10114 10112 10110 10108 10106 10104 10103 10103 10104
10427 10421 10415 10409 10402 10394 10385 10376 10367 10358 10349 10337 10326 10314 10303 10292 10277 10265 10250 10236 10222 10208 10199 10191 10183 10174 10166 10158 10151 10144 10138 10132 10128 10124 10121 10117 10114 10112 10110 10108 10106 10106 10106
10429 10423 10417 10412 10405 10398 10392 10384 10376 10367 10358 10349 10339 10330 10318 10308 10297 10284 10269 10250 10237 10231 10222 10212 10201 10191 10181 10172 10164 10157 10150 10143 10137 10132 10127 10123 10119 10116 10113 10111 10110 10109 10109
10431 10426 10419 10413 10408 10401 10395 10390 10384 10376 10368 10360 10352 10341 10330 10322 10310 10295 10281 10271 10264 10254 10243 10231 10219 10208 10197 10187 10177 10170 10162 10155 10149 10143 10138 10133 10128 10123 10120 10117 10114 10112 10111
10433 10427 10422 10416 10410 10405 10400 10395 10390 10384 10378 10370 10362 10353 10345 10334 10321 10311 10302 10293 10283 10273 10262 10251 10240 10226 10215 10203 10193 10184 10176 10168 10161 10154 10148 10143 10137 10132 10128 10124 10121 10118 10116
10439 10429 10423 10419 10415 10409 10405 10400 10395 10389 10383 10377 10369 10362 10354 10346 10337 10328 10319 10309 10300 10291 10281 10271 10259 10247 10235 10223 10210 10200 10190 10182 10174 10168 10162 10156 10149 10143 10137 10133 10129 10126 10123
10448 10437 10428 10420 10416 10412 10408 10403 10399 10394 10389 10383 10377 10371 10364 10357 10349 10340 10332 10323 10315 10307 10297 10287 10277 10266 10254 10242 10230 10218 10208 10198 10190 10184 10177 10170 10162 10155 10149 10143 10140 10135 10131
10456 10445 10436 10427 10418 10413 10409 10405 10400 10396 10393 10389 10384 10378 10372 10366 10359 10351 10344 10336 10328 10320 10313 10304 10294 10283 10273 10263 10250 10237 10225 10216 10208 10200 10195 10189 10180 10173 10167 10159 10153 10148 10143
10466 10453 10441 10435 10426 10418 10410 10405 10402 10398 10393 10389 10386 10382 10378 10372 10366 10360 10353 10347 10339 10332 10324 10316 10308 10299 10291 10281 10270 10257 10247 10235 10229 10219 10213 10206 10199 10192 10185 10179 10174 10169 10162
10475 10463 10452 10444 10433 10423 10414 10407 10400 10396 10393 10389 10385 10381 10379 10376 10371 10366 10361 10355 10348 10342 10334 10327 10320 10312 10304 10296 10287 10277 10267 10257 10247 10239 10231 10225 10218 10210 10204 10198 10192 10186 10180
10482 10472 10460 10449 10437 10428 10419 10411 10403 10397 10392 10388 10385 10382 10379 10375 10372 10369 10365 10360 10355 10349 10343 10337 10330 10323 10317 10309 10301 10294 10285 10275 10266 10257 10249 10244 10237 10229 10221 10215 10208 10202 10197